Meteo pe oră la Dzikowko

Astăzi, 8 Martie, Luni

Timp Temperatura Precipitaţii Vânt Presiune Umiditate
00:00 -1°C° 0 mm 3 m/s 761 mmHg 66%
01:00 -1°C° 0 mm 3 m/s 762 mmHg 64%
02:00 -1°C° 0 mm 3 m/s 762 mmHg 65%
03:00 -1°C° 0 mm 3 m/s 762 mmHg 66%
04:00 -2°C° 0 mm 4 m/s 762 mmHg 67%
05:00 -2°C° 0 mm 4 m/s 763 mmHg 67%
06:00 -2°C° 0 mm 4 m/s 763 mmHg 66%
07:00 -2°C° 0 mm 4 m/s 763 mmHg 66%
08:00 -1°C° 0 mm 4 m/s 764 mmHg 61%
09:00 0°C° 0 mm 5 m/s 764 mmHg 56%
10:00 +1°C° 0 mm 5 m/s 765 mmHg 50%
11:00 +1°C° 0 mm 5 m/s 765 mmHg 50%
12:00 +1°C° 0 mm 4 m/s 765 mmHg 50%
13:00 +1°C° 0 mm 4 m/s 765 mmHg 50%
14:00 +1°C° 0 mm 4 m/s 765 mmHg 51%
15:00 0°C° 0 mm 4 m/s 765 mmHg 52%
16:00 +1°C° 0 mm 3 m/s 765 mmHg 53%
17:00 0°C° 0 mm 3 m/s 765 mmHg 57%
18:00 -1°C° 0 mm 2 m/s 765 mmHg 61%
19:00 -2°C° 0 mm 2 m/s 765 mmHg 65%
20:00 0°C° 0 mm 1 m/s 765 mmHg 65%
21:00 0°C° 0 mm 1 m/s 765 mmHg 65%
22:00 -2°C° 0 mm 0 m/s 765 mmHg 65%
23:00 0°C° 0 mm 1 m/s 765 mmHg 65%

Mâine, 9 Martie, Marţi

Timp Temperatura Precipitaţii Vânt Presiune Umiditate
00:00 0°C° 0 mm 1 m/s 765 mmHg 65%
01:00 0°C° 0 mm 1 m/s 765 mmHg 65%
02:00 -1°C° 0 mm 1 m/s 765 mmHg 65%
03:00 -3°C° 0 mm 2 m/s 764 mmHg 66%
04:00 -3°C° 0 mm 2 m/s 764 mmHg 66%
05:00 -3°C° 0 mm 2 m/s 764 mmHg 66%
06:00 -3°C° 0 mm 2 m/s 764 mmHg 65%
07:00 -3°C° 0 mm 2 m/s 764 mmHg 65%
08:00 -2°C° 0 mm 2 m/s 764 mmHg 58%
09:00 -1°C° 0 mm 2 m/s 764 mmHg 51%
10:00 +1°C° 0 mm 2 m/s 764 mmHg 44%
11:00 +2°C° 0 mm 2 m/s 764 mmHg 40%
12:00 +3°C° 0 mm 2 m/s 764 mmHg 37%
13:00 +4°C° 0 mm 2 m/s 764 mmHg 33%
14:00 +5°C° 0 mm 1 m/s 763 mmHg 34%
15:00 +5°C° 0 mm 1 m/s 763 mmHg 34%
16:00 +5°C° 0 mm 1 m/s 762 mmHg 35%
17:00 +3°C° 0 mm 1 m/s 762 mmHg 39%
18:00 +1°C° 0 mm 2 m/s 762 mmHg 44%
19:00 -1°C° 0 mm 2 m/s 763 mmHg 48%
20:00 -2°C° 0 mm 2 m/s 763 mmHg 49%
21:00 -2°C° 0 mm 2 m/s 763 mmHg 50%
22:00 -2°C° 0 mm 2 m/s 763 mmHg 50%
23:00 -2°C° 0 mm 2 m/s 763 mmHg 51%

Poimâine, 10 Martie, Miercuri

Timp Temperatura Precipitaţii Vânt Presiune Umiditate
00:00 -2°C° 0 mm 2 m/s 762 mmHg 51%
01:00 -3°C° 0 mm 2 m/s 762 mmHg 52%
02:00 -3°C° 0 mm 2 m/s 762 mmHg 52%
03:00 -3°C° 0 mm 2 m/s 762 mmHg 52%
04:00 -3°C° 0 mm 2 m/s 762 mmHg 52%
05:00 -3°C° 0 mm 2 m/s 762 mmHg 51%
06:00 -2°C° 0 mm 2 m/s 762 mmHg 50%
07:00 -2°C° 0 mm 2 m/s 762 mmHg 50%
08:00 -1°C° 0 mm 2 m/s 762 mmHg 46%
09:00 +2°C° 0 mm 2 m/s 762 mmHg 41%
10:00 +3°C° 0 mm 2 m/s 762 mmHg 37%
11:00 +4°C° 0 mm 2 m/s 762 mmHg 36%
12:00 +4°C° 0 mm 3 m/s 762 mmHg 35%
13:00 +4°C° 0 mm 3 m/s 762 mmHg 33%
14:00 +4°C° 0 mm 3 m/s 761 mmHg 39%
15:00 +4°C° 0 mm 3 m/s 761 mmHg 44%
16:00 +4°C° 0 mm 3 m/s 760 mmHg 49%
17:00 +3°C° 0 mm 4 m/s 760 mmHg 56%
18:00 +1°C° 0 mm 4 m/s 760 mmHg 63%
19:00 0°C° 0 mm 5 m/s 759 mmHg 70%
20:00 0°C° 0 mm 5 m/s 759 mmHg 75%
21:00 -1°C° 0 mm 6 m/s 759 mmHg 80%
22:00 -1°C° 0 mm 6 m/s 758 mmHg 85%
23:00 -1°C° 0.3 mm 6 m/s 757 mmHg 88%

11 Martie, Joi

Timp Temperatura Precipitaţii Vânt Presiune Umiditate
00:00 -1°C° 0.3 mm 7 m/s 757 mmHg 92%
01:00 0°C° 0.3 mm 7 m/s 756 mmHg 96%
02:00 0°C° 0.3 mm 7 m/s 755 mmHg 95%
03:00 0°C° 0.3 mm 7 m/s 754 mmHg 94%
04:00 0°C° 0.3 mm 7 m/s 753 mmHg 93%
05:00 0°C° 0.5 mm 8 m/s 752 mmHg 93%
06:00 +1°C° 0.5 mm 8 m/s 751 mmHg 93%
07:00 +1°C° 0.5 mm 9 m/s 749 mmHg 93%
08:00 +1°C° 1.3 mm 9 m/s 748 mmHg 93%
09:00 +1°C° 1.3 mm 9 m/s 747 mmHg 93%
10:00 +2°C° 1.3 mm 9 m/s 746 mmHg 93%
11:00 +3°C° 0.9 mm 9 m/s 746 mmHg 92%
12:00 +3°C° 0.9 mm 9 m/s 745 mmHg 92%
13:00 +5°C° 0.9 mm 8 m/s 744 mmHg 91%
14:00 +6°C° 0.6 mm 8 m/s 744 mmHg 91%
15:00 +6°C° 0.6 mm 8 m/s 743 mmHg 91%
16:00 +7°C° 0.6 mm 8 m/s 742 mmHg 90%
17:00 +6°C° 0.7 mm 8 m/s 743 mmHg 88%
18:00 +6°C° 0.7 mm 7 m/s 743 mmHg 86%
19:00 +5°C° 0.7 mm 7 m/s 743 mmHg 83%
20:00 +5°C° 0.1 mm 7 m/s 743 mmHg 82%
21:00 +4°C° 0.1 mm 7 m/s 744 mmHg 82%
22:00 +4°C° 0.1 mm 8 m/s 744 mmHg 81%
23:00 +4°C° 0 mm 8 m/s 744 mmHg 81%

12 Martie, Vineri

Timp Temperatura Precipitaţii Vânt Presiune Umiditate
00:00 +3°C° 0 mm 9 m/s 744 mmHg 81%
01:00 +2°C° 0 mm 9 m/s 744 mmHg 80%
02:00 +2°C° 0.1 mm 9 m/s 744 mmHg 79%
03:00 +2°C° 0.1 mm 9 m/s 744 mmHg 79%
04:00 +2°C° 0.1 mm 9 m/s 744 mmHg 78%
05:00 +2°C° 0.5 mm 10 m/s 744 mmHg 78%
06:00 +2°C° 0.5 mm 10 m/s 745 mmHg 79%
07:00 +2°C° 0.5 mm 11 m/s 746 mmHg 80%
08:00 +2°C° 0 mm 11 m/s 747 mmHg 76%
09:00 +3°C° 0 mm 12 m/s 747 mmHg 71%
10:00 +3°C° 0 mm 13 m/s 748 mmHg 67%
11:00 +3°C° 0.2 mm 13 m/s 749 mmHg 65%
12:00 +3°C° 0.2 mm 12 m/s 749 mmHg 63%
13:00 +4°C° 0.2 mm 12 m/s 750 mmHg 61%
14:00 +4°C° 0.1 mm 11 m/s 750 mmHg 62%
15:00 +5°C° 0.1 mm 10 m/s 750 mmHg 62%
16:00 +5°C° 0.1 mm 10 m/s 751 mmHg 63%
17:00 +4°C° 0 mm 8 m/s 751 mmHg 67%
18:00 +3°C° 0 mm 7 m/s 751 mmHg 71%
19:00 +3°C° 0 mm 5 m/s 751 mmHg 76%
20:00 +3°C° 0 mm 5 m/s 752 mmHg 77%
21:00 +2°C° 0 mm 6 m/s 752 mmHg 79%
22:00 +2°C° 0 mm 6 m/s 752 mmHg 81%
23:00 +2°C° 0 mm 6 m/s 752 mmHg 81%

13 Martie, Sâmbătă

Timp Temperatura Precipitaţii Vânt Presiune Umiditate
00:00 +2°C° 0 mm 6 m/s 752 mmHg 81%
01:00 +2°C° 0 mm 6 m/s 751 mmHg 82%
02:00 +2°C° 0 mm 6 m/s 751 mmHg 82%
03:00 +2°C° 0 mm 6 m/s 751 mmHg 82%
04:00 +2°C° 0 mm 6 m/s 750 mmHg 82%
05:00 +1°C° 0 mm 6 m/s 750 mmHg 82%
06:00 0°C° 0 mm 7 m/s 750 mmHg 82%
07:00 0°C° 0 mm 7 m/s 750 mmHg 83%
08:00 +2°C° 0 mm 7 m/s 750 mmHg 80%
09:00 +3°C° 0 mm 7 m/s 750 mmHg 78%
10:00 +4°C° 0 mm 8 m/s 750 mmHg 76%
11:00 +4°C° 0.5 mm 7 m/s 750 mmHg 81%
12:00 +3°C° 0.5 mm 6 m/s 750 mmHg 86%
13:00 +3°C° 0.5 mm 6 m/s 750 mmHg 92%
14:00 +3°C° 0.3 mm 5 m/s 750 mmHg 84%
15:00 +5°C° 0.3 mm 4 m/s 750 mmHg 76%
16:00 +7°C° 0.3 mm 3 m/s 750 mmHg 69%
17:00 +5°C° 0.1 mm 3 m/s 750 mmHg 72%
18:00 +4°C° 0.1 mm 3 m/s 750 mmHg 76%
19:00 +3°C° 0.1 mm 3 m/s 751 mmHg 80%
20:00 +3°C° 0 mm 3 m/s 751 mmHg 82%
21:00 +2°C° 0 mm 3 m/s 751 mmHg 84%
22:00 +2°C° 0 mm 3 m/s 751 mmHg 85%
23:00 +2°C° 0 mm 3 m/s 751 mmHg 87%
Arată mai mult

Formular de consimțământ

Meteoprog și furnizorii noștri de servicii pot stoca și accesa date personale, precum cookies, identificatori de dispozitiv sau alte tehnologii similare pe dispozitivul dumneavoastră și procesa astfel de date pentru a personaliza conținutul și reclamele, dar și pentru a oferi caracteristici de social media și pentru a analiza traficul.

  • Stocarea și/sau accesarea informațiilor pe dispozitivul dumneavoastră

    Cookies, identificatori de dispozitiv sau alte informații pot fi stocate sau accesate pe dispozitiv în scopurile indicate mai sus.

  • Reclame și conținut personalizat, evaluarea reclamelor și a conținutului, informații despre audiențe și dezvoltarea produselor

    Reclamele și conținutul pot fi personalizate pe baza unui profil. Pot fi adăugate date suplimentare pentru a personaliza mai bine reclamele și conținutul. Performanța reclamelor și conținutului poate fi măsurată. Pot fi obținute informații despre utilizatorii care au văzut reclamele și conținutul. Aceste date pot fi utilizate pentru a dezvolta sau îmbunătăți experiența utilizatorilor, sistemele și software-ul.

Dând clic pe ‘Sunt de acord’, permiteți utilizarea cookie-urilor menționate, a identificatorilor de dispozitiv, balizelor web sau altor tehnologii similare. Setările pot fi modificate din browser-ul dispozitivului dumneavoastră.

În anumite scopuri, interesele legitime pot prima asupra consimțământului. Puteți citi mai multe informații în acest sens în Politica privind Confidențialitatea Datelor și Cookie.